Home   Weather   Phoenix   Past weeks
Flag for USA

Past Weather in Phoenix, Arizona, USA — Yesterday and Last 2 Weeks

Now
91 °F

Passing clouds.


Feels Like: 87 °F
Forecast: 96 / 66 °F
Wind: 5 mph from West

Location: Phoenix Sky Harbor International Airport

Current Time: Oct 15, 2019 at 5:03:19 pm

Latest Report: Oct 15, 2019 at 3:51 pm


Visibility: 10 mi

Pressure: 29.83 "Hg

Humidity: 15%

Dew Point: 37 °F

Location of PhoenixLocation

Past Weather in Phoenix — Graph

°F

Phoenix Temperature Yesterday

Maximum temperature yesterday: 88 °F (at 1:51 pm)
Minimum temperature yesterday: 66 °F (at 4:51 am)
Average temperature yesterday: 77 °F

High & Low Weather Summary for the Past Weeks

 TemperatureHumidityPressure
High98 °F (Oct 7, 2:51 pm)55% (Oct 5, 5:51 am)30.01 "Hg (Oct 5, 5:51 am)
Low64 °F (Oct 11, 1:51 am)4% (Oct 11, 10:51 am)29.58 "Hg (Oct 9, 4:51 pm)
Average80 °F26%29.81 "Hg
* Reported Sep 30 2:51 pm — Oct 15 2:51 pm, Phoenix. Weather by CustomWeather, © 2019

Note: Actual official high and low records may vary slightly from our data, if they occured in-between our weather recording intervals... More about our weather records

Advertising

Phoenix Weather History for the Previous 24 Hours

Scroll right to see more
 ConditionsComfort  
Time TempWeatherWind HumidityBarometerVisibility
2:51 pm
Tue, Oct 15
93 °FPassing clouds.No wind15%29.84 "Hg10 mi
1:51 pm90 °FPassing clouds.8 mph17%29.86 "Hg10 mi
12:51 pm89 °FPassing clouds.No wind20%29.89 "Hg10 mi
11:51 am87 °FPassing clouds.5 mph24%29.92 "Hg10 mi
10:51 am84 °FPassing clouds.5 mph26%29.94 "Hg10 mi
9:51 am81 °FPassing clouds.7 mph28%29.95 "Hg10 mi
8:51 am75 °FPassing clouds.7 mph39%29.96 "Hg10 mi
7:51 am72 °FPassing clouds.7 mph40%29.94 "Hg10 mi
6:51 am70 °FPassing clouds.6 mph44%29.91 "Hg10 mi
5:51 am71 °FPassing clouds.No wind45%29.89 "Hg10 mi
4:51 am70 °FClear.No wind49%29.88 "Hg10 mi
3:51 am70 °FClear.3 mph49%29.86 "Hg10 mi
2:51 am71 °FClear.No wind51%29.85 "Hg10 mi
1:51 am72 °FPassing clouds.No wind49%29.85 "Hg10 mi
12:51 am73 °FClear.5 mph50%29.84 "Hg10 mi
11:51 pm
Mon, Oct 14
76 °FClear.3 mph43%29.83 "Hg10 mi
10:51 pm75 °FPassing clouds.6 mph47%29.83 "Hg10 mi
9:51 pm80 °FPassing clouds.3 mph36%29.82 "Hg10 mi
8:51 pm82 °FPassing clouds.6 mph34%29.81 "Hg10 mi
7:51 pm83 °FPassing clouds.6 mph33%29.80 "Hg10 mi
6:51 pm84 °FPassing clouds.6 mph36%29.78 "Hg10 mi
5:51 pm85 °FPassing clouds.8 mph34%29.76 "Hg10 mi
Weather by CustomWeather, © 2019

See weather overview